Tracking 31027 objects as of 19-Jul-2025
HD Live streaming from Space Station
objects crossing your sky now

FENGYUN 1C DEB

Track FENGYUN 1C DEB now!
10-day predictions


NORAD ID: 37060
Int'l Code: 1999-025EEU
Perigee: 839.8 km
Apogee: 959.1 km
Inclination: 99.1 °
Period: 102.8 minutes
Semi major axis: 7270 km
RCS: 0.0093 m2 (small)
Launch date: May 10, 1999
Source: People's Republic of China (PRC)
Launch site: Taiyaun Space Center, China (TSC)

Note: This is SATELLITE DEBRIS
Your satellite tracking list
Your tracking list is empty




NASA's NSSDC Master Catalog

Two Line Element Set (TLE):
1 37060U 99025EEU 25191.40889210  .00000080  00000-0  81191-4 0  9993
2 37060  99.1181 249.4357 0082063  58.6063 302.3095 14.00438794605326
Source of the keplerian elements: AFSPC